This demonstration page uses our WeatherBlox Daily Observations layout. Learn more.

Left ArrowRight Arrow

41.55636, -103.73856

Hourly Observations for June 16, 2021

Temp ( °F °C ) Dew Point ( °F °C ) Humidity (%) Winds ( mph kmh ) Pressure ( in mb ) Visibility ( mi km ) Precip ( " mm )
12:58 am 00:58 Clear 78 25.7 50 10 37 37 SSW 21 33 29.87 1012 10 16 N/A
1:58 am 01:58 Clear 76 24.3 49 9.7 40 40 SSW 20 31 29.86 1011 10 16 N/A
2:58 am 02:58 Clear 75 23.7 48 9.1 40 40 SSW 21 33 29.85 1011 10 16 N/A
3:58 am 03:58 Clear 74 23.4 49 9.3 41 41 WSW 12 19 29.87 1012 10 16 N/A
4:58 am 04:58 Clear 67 19.5 50 10.2 55 55 SW 10 17 29.88 1012 10 16 N/A
5:58 am 05:58 Sunny 63 17.2 51 10.4 64 64 W 8 13 29.91 1013 10 16 N/A
6:58 am 06:58 Sunny 66 18.7 50 10.2 58 58 NW 8 13 29.91 1013 10 16 N/A
7:58 am 07:58 Sunny 71 21.9 48 9.1 44 44 W 5 7 29.93 1013 10 16 N/A
8:58 am 08:58 Sunny 82 27.6 40 4.5 23 23 WNW 8 13 29.93 1014 10 16 N/A
9:58 am 09:58 Sunny 90 32.4 35 1.8 14 14 NW 12 19 29.91 1013 10 16 N/A
10:58 am 10:58 Sunny 94 34.5 36 2.3 13 13 NW 14 22 29.93 1013 10 16 N/A
11:58 am 11:58 Sunny 97 35.9 35 1.6 11 11 N 10 17 29.92 1013 10 16 N/A
12:58 pm 12:58 Sunny 97 36.2 39 3.7 13 13 NNE 10 17 29.91 1013 10 16 N/A
1:58 pm 13:58 Sunny 98 36.6 39 3.9 13 13 NE 13 20 29.92 1013 10 16 N/A
2:58 pm 14:58 Sunny 98 36.7 39 3.9 13 13 ENE 13 20 29.89 1012 10 16 N/A
3:58 pm 15:58 Sunny 97 36.2 44 6.7 16 16 ENE 20 31 29.89 1012 10 16 N/A
4:58 pm 16:58 Sunny 95 34.8 47 8.2 19 19 ENE 16 26 29.91 1013 10 16 N/A
5:58 pm 17:58 Sunny 88 31.3 50 10.1 27 27 E 15 24 29.94 1014 10 16 N/A
6:58 pm 18:58 Sunny 85 29.5 49 9.2 28 28 ENE 16 26 29.93 1013 10 16 N/A
7:58 pm 19:58 Sunny 81 27.1 48 8.7 31 31 ENE 14 22 29.94 1014 10 16 N/A
8:58 pm 20:58 Clear 77 24.9 49 9.4 38 38 ESE 14 22 29.95 1014 10 16 N/A
9:58 pm 21:58 Clear 73 22.5 52 10.9 48 48 ESE 12 19 29.96 1015 10 16 N/A
10:58 pm 22:58 Clear 73 22.8 53 11.7 50 50 E 15 24 29.92 1013 10 16 N/A
11:58 pm 23:58 Clear 71 21.5 53 11.7 54 54 ESE 13 20 29.91 1013 10 16 N/A

Powered by AerisWeather